YO3FVR-WX Weather Reports


time (UTC)temp
F
wind
direction
speed
knots
gust
knots
rain 1hr
in
rain 24hr
in
rain mn
in
humidity
%
barometer
mb
20260902130625 86 203 0.0 0.0 0.00 0.00 0.00 46 1012.4
20260902125625 86 0 0.0 0.0 0.00 0.00 0.00 46 1012.5
20260902124555 86 0 0.0 0.0 0.00 0.00 0.00 47 1012.7
20260902123555 85 0 0.0 1.7 0.00 0.00 0.00 47 1012.8
20260902122525 86 40 0.0 0.0 0.00 0.00 0.00 48 1013.0
20260902121455 85 0 0.0 0.0 0.00 0.00 0.00 49 1013.1
20260902120455 85 0 0.0 0.0 0.00 0.00 0.00 49 1013.2
20260902115455 84 90 0.0 0.0 0.00 0.00 0.00 49 1013.2
20260902114425 84 0 0.0 0.0 0.00 0.00 0.00 49 1013.4
20260902113355 84 179 0.0 0.0 0.00 0.00 0.00 49 1013.7
20260902112325 83 216 0.0 0.9 0.00 0.00 0.00 49 1013.8
20260902111255 83 0 0.0 0.0 0.00 0.00 0.00 50 1013.9
20260902110225 83 0 0.0 1.7 0.00 0.00 0.00 51 1013.9
20260902105225 83 0 0.0 0.9 0.00 0.00 0.00 51 1013.9
20260902104155 83 0 0.0 10.4 0.00 0.00 0.00 52 1014.0
20260902103155 83 321 10.4 10.4 0.00 0.00 0.00 53 1014.1
20260902102125 82 0 0.0 0.0 0.00 0.00 0.00 53 1014.2
20260902101055 82 0 0.0 0.0 0.00 0.00 0.00 54 1014.2
20260902100055 81 0 0.0 0.0 0.00 0.00 0.00 54 1014.3
20260902095025 81 0 0.0 0.0 0.00 0.00 0.00 55 1014.4
20260902093955 80 0 0.0 0.0 0.00 0.00 0.00 55 1014.4
20260902092925 80 0 0.0 0.0 0.00 0.00 0.00 55 1014.5
20260902091925 80 0 0.0 0.0 0.00 0.00 0.00 56 1014.6
20260902090855 80 0 0.0 0.0 0.00 0.00 0.00 57 1014.7
20260902085825 80 0 0.0 0.0 0.00 0.00 0.00 57 1014.7
20260902084755 80 0 0.0 0.0 0.00 0.00 0.00 57 1014.7
20260902083755 80 0 0.0 0.0 0.00 0.00 0.00 58 1014.7
20260902082755 79 0 0.0 0.0 0.00 0.00 0.00 59 1014.8
20260902081725 79 0 0.0 0.0 0.00 0.00 0.00 60 1014.8
20260902080725 78 0 0.0 0.0 0.00 0.00 0.00 61 1014.8
20260902075655 78 0 0.0 0.0 0.00 0.00 0.00 62 1014.9
20260902074655 77 0 0.0 0.0 0.00 0.00 0.00 62 1014.8
20260902073625 76 0 0.0 0.0 0.00 0.00 0.00 63 1014.8
20260902072555 75 0 0.0 0.0 0.00 0.00 0.00 64 1014.6
20260902071555 75 0 0.0 0.0 0.00 0.00 0.00 65 1014.8
20260902070555 74 0 0.0 0.0 0.00 0.00 0.00 66 1014.7
20260902065525 74 0 0.0 0.0 0.00 0.00 0.00 66 1014.6
20260902064455 73 0 0.0 0.0 0.00 0.00 0.00 68 1014.5
20260902063425 72 0 0.0 0.0 0.00 0.00 0.00 69 1014.5
20260902062355 71 0 0.0 0.0 0.00 0.00 0.00 72 1014.5
20260902061325 71 0 0.0 0.0 0.00 0.00 0.00 72 1014.5
20260902060255 70 0 0.0 0.0 0.00 0.00 0.00 74 1014.4
20260902055255 69 0 0.0 0.0 0.00 0.00 0.00 74 1014.5
20260902054225 69 0 0.0 0.0 0.00 0.00 0.00 75 1014.5
20260902053155 69 0 0.0 0.0 0.00 0.00 0.00 77 1014.6
20260902052155 69 0 0.0 0.0 0.00 0.00 0.00 77 1014.8
20260902051125 68 0 0.0 0.0 0.00 0.00 0.00 78 1014.7
20260902050125 68 0 0.0 0.0 0.00 0.00 0.00 78 1014.7
20260902045125 68 0 0.0 0.0 0.00 0.00 0.00 78 1014.5
20260902044055 68 0 0.0 0.0 0.00 0.00 0.00 78 1014.5
20260902043025 68 0 0.0 0.0 0.00 0.00 0.00 77 1014.1
20260902042025 68 0 0.0 0.0 0.00 0.00 0.00 76 1014.3
20260902040955 69 0 0.0 0.0 0.00 0.00 0.00 75 1014.0
20260902035955 69 0 0.0 0.0 0.00 0.00 0.00 73 1014.1
20260902034955 69 0 0.0 0.0 0.00 0.00 0.00 72 1014.3
20260902033925 70 0 0.0 0.0 0.00 0.00 0.00 71 1014.3
20260902032855 70 0 0.0 0.0 0.00 0.00 0.00 71 1014.1
20260902031825 70 0 0.0 0.0 0.00 0.00 0.00 71 1013.8
20260902030755 70 0 0.0 0.0 0.00 0.00 0.00 71 1013.7
20260902025755 70 0 0.0 0.0 0.00 0.00 0.00 70 1013.8
20260902024725 71 0 0.0 0.0 0.00 0.00 0.00 68 1013.8
20260902023655 72 0 0.0 0.0 0.00 0.00 0.00 65 1014.0
20260902022625 72 0 0.0 0.0 0.00 0.00 0.00 65 1013.9
20260902021555 72 0 0.0 0.0 0.00 0.00 0.00 65 1013.6
20260902020555 72 0 0.0 0.0 0.00 0.00 0.00 65 1013.5
20260902015526 72 0 0.0 0.0 0.00 0.00 0.00 64 1013.5
20260902014456 72 0 0.0 0.0 0.00 0.00 0.00 64 1013.5
20260902013425 73 0 0.0 0.0 0.00 0.00 0.00 64 1013.4
20260902012426 73 0 0.0 0.0 0.00 0.00 0.00 64 1013.4
20260902011356 73 0 0.0 0.0 0.00 0.00 0.00 63 1013.3
20260902010326 73 0 0.0 0.0 0.00 0.00 0.00 64 1013.4
20260902005256 73 0 0.0 0.0 0.00 0.00 0.00 64 1013.4
20260902004226 73 0 0.0 0.0 0.00 0.00 0.00 63 1013.5
20260902003226 73 0 0.0 0.0 0.00 0.00 0.00 63 1013.4
20260902002156 74 0 0.0 0.0 0.00 0.00 0.00 62 1013.2
20260902001126 74 0 0.0 0.0 0.00 0.00 0.00 62 1013.3
20260902000056 74 0 0.0 0.0 0.00 0.00 0.00 62 1013.3
20260901235026 74 0 0.0 0.0 0.00 0.00 0.00 61 1013.2
20260901233956 74 0 0.0 0.0 0.00 0.00 0.00 60 1013.3
20260901232926 75 0 0.0 0.0 0.00 0.00 0.00 60 1013.1
20260901231856 75 0 0.0 0.0 0.00 0.00 0.00 59 1013.1
20260901230826 75 0 0.0 0.0 0.00 0.00 0.00 59 1013.1
20260901225756 75 0 0.0 0.0 0.00 0.00 0.00 59 1013.1
20260901224726 76 0 0.0 0.0 0.00 0.00 0.00 58 1013.2
20260901223656 76 0 0.0 0.9 0.00 0.00 0.00 58 1013.3
20260901222626 76 231 0.9 0.9 0.00 0.00 0.00 58 1013.2
20260901221626 76 0 0.0 6.1 0.00 0.00 0.00 57 1013.3
20260901220556 77 0 0.0 1.7 0.00 0.00 0.00 57 1013.1
20260901215526 77 0 0.0 0.9 0.00 0.00 0.00 57 1013.1
20260901214526 77 0 0.0 2.6 0.00 0.00 0.00 56 1013.0
20260901213456 77 0 0.0 0.0 0.00 0.00 0.00 56 1013.0
20260901212426 77 0 0.0 0.0 0.00 0.00 0.00 57 1013.0
20260901211426 77 0 0.0 0.0 0.00 0.00 0.00 58 1012.8
20260901210356 76 0 0.0 9.6 0.00 0.00 0.00 58 1012.6
20260901205356 76 0 0.0 0.0 0.00 0.00 0.00 57 1012.7
20260901204326 76 0 0.0 0.0 0.00 0.00 0.00 57 1012.6
20260901203256 76 0 0.0 0.0 0.00 0.00 0.00 55 1012.5
20260901202256 76 0 0.0 0.0 0.00 0.00 0.00 54 1012.4
20260901201226 76 0 0.0 0.0 0.00 0.00 0.00 53 1012.4
20260901200226 76 0 0.0 0.0 0.00 0.00 0.00 53 1012.3
20260901195156 77 0 0.0 0.0 0.00 0.00 0.00 51 1012.2
20260901194156 77 0 0.0 0.0 0.00 0.00 0.00 51 1012.2
20260901193156 78 0 0.0 0.0 0.00 0.00 0.00 50 1012.1
20260901192126 78 0 0.0 0.0 0.00 0.00 0.00 49 1012.1
20260901191057 78 0 0.0 0.0 0.00 0.00 0.00 49 1012.1
20260901190026 79 0 0.0 0.0 0.00 0.00 0.00 49 1012.0
20260901184956 79 0 0.0 0.0 0.00 0.00 0.00 49 1011.9
20260901183926 80 0 0.0 0.0 0.00 0.00 0.00 47 1011.8
20260901182856 80 0 0.0 0.0 0.00 0.00 0.00 47 1011.8
20260901181826 81 0 0.0 0.0 0.00 0.00 0.00 46 1011.7
20260901180756 81 0 0.0 0.0 0.00 0.00 0.00 45 1011.5
20260901175756 82 0 0.0 0.0 0.00 0.00 0.00 44 1011.4
20260901174726 82 0 0.0 0.0 0.00 0.00 0.00 44 1011.4
20260901173656 83 0 0.0 0.0 0.00 0.00 0.00 44 1011.3
20260901172656 83 0 0.0 0.0 0.00 0.00 0.00 43 1011.2
20260901171626 84 0 0.0 0.0 0.00 0.00 0.00 43 1011.1
20260901170626 84 0 0.0 0.0 0.00 0.00 0.00 42 1010.9
20260901165556 85 0 0.0 0.0 0.00 0.00 0.00 41 1010.8
20260901164526 86 0 0.0 0.0 0.00 0.00 0.00 41 1010.6
20260901163456 87 0 0.0 0.0 0.00 0.00 0.00 39 1010.6
20260901162426 87 0 0.0 0.0 0.00 0.00 0.00 39 1010.6
20260901161426 87 0 0.0 0.0 0.00 0.00 0.00 38 1010.7
20260901160426 88 0 0.0 0.0 0.00 0.00 0.00 38 1010.7
20260901155356 88 0 0.0 0.0 0.00 0.00 0.00 37 1010.8
20260901154326 89 0 0.0 2.6 0.00 0.00 0.00 37 1010.7
20260901153256 89 0 0.0 0.0 0.00 0.00 0.00 37 1010.7
20260901152256 89 0 0.0 17.4 0.00 0.00 0.00 37 1010.7
20260901151226 89 181 17.4 17.4 0.00 0.00 0.00 37 1010.6
20260901150156 89 0 0.0 0.0 0.00 0.00 0.00 37 1010.8
20260901145126 89 0 0.0 14.8 0.00 0.00 0.00 37 1010.8
20260901144126 89 0 0.0 0.0 0.00 0.00 0.00 37 1010.8
20260901143056 89 0 0.0 0.9 0.00 0.00 0.00 37 1010.7
20260901142056 89 0 0.0 0.9 0.00 0.00 0.00 37 1010.7
20260901141026 89 333 0.9 0.9 0.00 0.00 0.00 37 1010.7
20260901135956 89 0 0.0 0.9 0.00 0.00 0.00 36 1010.8
20260901134956 89 0 0.0 1.7 0.00 0.00 0.00 36 1010.9
20260901133956 89 0 0.0 0.9 0.00 0.00 0.00 36 1010.9
20260901132926 89 3 0.9 1.7 0.00 0.00 0.00 36 1010.8
20260901131856 89 19 1.7 1.7 0.00 0.00 0.00 36 1010.9